Regional Weather Roundup
Issued by NWS

Home | Current Version | Previous Version | Text Only | Print | Product List | Glossary Off
Versions: 1 2 3 4 5 6 7 8 9 10 11 12 13 14 15 16 17 18 19 20 21 22 23 24 25 26 27 28 29 30 31 32 33 34 35 36 37 38 39 40 41 42 43 44 45 46 47 48 49 50

000
ASUS45 KCYS 210810
RWRWY

WYOMING REGIONAL WEATHER ROUNDUP
NATIONAL WEATHER SERVICE CHEYENNE WY
100 AM MST WED FEB 21 2018

NOTE:  "FAIR" INDICATES FEW OR NO CLOUDS BELOW 12,000 FEET
WITH NO SIGNIFICANT WEATHER AND/OR OBSTRUCTIONS TO VISIBILITY.

WYZ001-210900-
YELLOWSTONE NATIONAL PARK

CITY           SKY/WX    TMP DP  RH WIND       PRES   REMARKS
LK YELLOWSTONE   N/A    -24 -29  77 NW3       29.96R
W YELLOWSTONE  NOT AVBL

$$
WYZ002>013-054>058-071-098>099-210900-
NORTHERN WYOMING

CITY           SKY/WX    TMP DP  RH WIND       PRES   REMARKS
JACKSON        LGT SNOW   4   0  83 SW8       30.05S FOG     WCI  -9
CODY           FAIR     -10 -15  78 NW3       30.07F
GREYBULL       FAIR     -22 -25  85 SE3       30.21R
WORLAND        FAIR     -19 -23  81 CALM      30.18R
SHERIDAN       FAIR     -15 -21  74 CALM      30.16S
BUFFALO        FAIR      -1 -13  56 SW6       30.09F WCI -13
GILLETTE         N/A     -3 -15  56 S13       30.16R WCI -22
HULETT         FAIR      -8 -15  71 MISG      30.18S
NEWCASTLE      FAIR     -13 -22  64 CALM      30.23S

$$
WYZ014>020-022>026-101>103-210900-
CENTRAL WYOMING

CITY           SKY/WX    TMP DP  RH WIND       PRES   REMARKS
BIG PINEY      FAIR     -18 -23  77 N6        30.07R WCI -33
PINEDALE       FAIR     -18 -26  69 NW5       30.06S WCI -31
DUBOIS           N/A    N/A N/A N/A MISG        N/A
LANDER         FAIR     -13 -16  86 SE6       30.08R WCI -27
RIVERTON       FAIR     -10 -18  67 SE3       30.10R
CASPER         FAIR      -2  -8  76 SW14      30.10R WCI -21
DOUGLAS        FAIR     -23 -28  78 W5        30.16R WCI -37

$$
WYZ021-027>030-104>119-210900-
SOUTHERN WYOMING

CITY           SKY/WX    TMP DP  RH WIND       PRES   REMARKS
EVANSTON       FAIR      -2  -5  87 SE6       30.02F WCI -14
FORT BRIDGER   FAIR      -2  -9  71 S7        30.08R WCI -16
ROCK SPRINGS   FAIR       1  -7  68 SW6       30.07R WCI -10
DIXON          FAIR      -3  -9  75 E8        30.12F WCI -18
RAWLINS        FAIR       1  -6  72 SW9       30.07R WCI -14
SARATOGA       FAIR      -8 -13  77 S10       30.07S WCI -26
LARAMIE        FAIR       0 -10  63 SE6       30.04R WCI -12
CHEYENNE       FAIR       5   0  79 SW9       30.11S WCI  -9
TORRINGTON     FAIR      -5 -10  79 E7        30.23R WCI -19
PINE BLUFFS    FAIR      -6 -11  77 MISG      30.20S

$$



USA.gov is the U.S. government's official web portal to all federal, state and local government web resources and services.